Regional Weather Roundup
Issued by NWS

Home | Current Version | Previous Version | Text Only | Print | Product List | Glossary On
Versions: 1 2 3 4 5 6 7 8 9 10 11 12 13 14 15 16 17 18 19 20 21 22 23 24 25 26 27 28 29 30 31 32 33 34 35 36 37 38 39 40 41 42 43 44 45 46 47 48 49 50
000
ASUS43 KMPX 290210
RWRMN
WEATHER ROUNDUP FOR MINNESOTA
NATIONAL WEATHER SERVICE TWIN CITIES/CHANHASSEN MN
900 PM CDT TUE MAR 28 2017


NOTE: "FAIR" INDICATES FEW OR NO CLOUDS BELOW 12,000 FEET WITH NO
SIGNIFICANT WEATHER AND/OR OBSTRUCTIONS TO VISIBILITY. N/A MEANS
CURRENT SKY AND/OR WEATHER CONDITIONS ARE NOT AVAILABLE.

MNZ060>063-068>070-290300-
   Twin Cities Metro

CITY           SKY/WX    TMP DP  RH WIND       PRES   REMARKS
TWIN CITIES    MOCLDY    57  30  35 VRB5      30.17R
ST PAUL        CLEAR     54  32  43 CALM      30.18R
CRYSTAL        PTCLDY    50  25  37 CALM      30.17R
BLAINE         PTCLDY    52  27  37 CALM      30.17R
LAKEVILLE      PTCLDY    45  36  70 CALM      30.17R
EDEN PRAIRIE   PTCLDY    55  30  38 NE3       30.16R
SOUTH ST PAUL  CLEAR     50  31  49 CALM      30.17R
LAKE ELMO      FAIR      45  34  65 CALM      30.19R
$$
MNZ001>005-007-008-013>017-022>024-027-028-290300-
   Northwest Minnesota

CITY           SKY/WX    TMP DP  RH WIND       PRES   REMARKS
BEMIDJI        CLOUDY    41  28  60 CALM      30.19R
HALLOCK        PTCLDY    39  37  93 NE3       30.22R
ROSEAU         MOCLDY    39  32  75 E7        30.24R
WARROAD        CLOUDY    37  28  70 NE3       30.25R
THIEF RVR FALL PTCLDY    46  33  60 NE9       30.22R
CROOKSTON      CLOUDY    45  43  93 NE5       30.21R
FOSSTON        CLOUDY    43  34  70 N3        30.21R
DETROIT LAKES  PTCLDY    50  34  53 NW3       30.20R
MOORHEAD       CLOUDY    46  41  81 N3        30.20R
PARK RAPIDS    CLOUDY    51  26  37 SE5       30.18R
MAHNOMEN       FAIR      44  35  70 NE6       30.19R
$$
MNZ006-009>011-018-025>026-290300-
   North Central Minnesota

CITY           SKY/WX    TMP DP  RH WIND       PRES   REMARKS
BAUDETTE       PTCLDY    39  27  62 CALM      30.23R
FLAG ISLAND    CLOUDY    41  25  52 CALM      30.24R
INTL FALLS     CLEAR     37  25  61 E5        30.23R
WASKISH        PTCLDY    43  30  61 N6        30.22R
BIG FORK       CLEAR     45  25  45 NE5       30.21R
LONGVILLE      CLEAR     39  30  70 CALM      30.19R
GRAND RAPIDS   CLEAR     41  29  62 CALM      30.21R
CRANE LAKE     CLEAR     30  23  74 CALM      30.26R
ORR            CLEAR     37  25  60 CALM      30.21R
COOK           CLEAR     37  27  65 CALM      30.23R
WALKER         FAIR      44  25  48 CALM      30.19R
$$
MNZ012-019>021-037-290300-
   Northeast Minnesota

CITY           SKY/WX    TMP DP  RH WIND       PRES   REMARKS
DULUTH         PTCLDY    39  29  67 E7        30.21R
ELY            CLEAR     36  25  64 CALM      30.23R
HIBBING        CLEAR     37  27  67 N3        30.20R
EVELETH        CLEAR     43  21  42 N5        30.22R
DULUTH HARBOR  MOCLDY    37  34  87 NE13      30.24R
TWO HARBORS    CLEAR     43  30  61 NE7       30.21R
GRAND MARAIS     N/A     33  26  75 NE3       30.28R
G MARAIS ARPRT CLEAR     34  21  60 NE6       30.26R WCI  29
$$
MNZ029>031-032-039>041-046>048-054>057-064-290300-
   West Central Minnesota

CITY           SKY/WX    TMP DP  RH WIND       PRES   REMARKS
FERGUS FALLS   CLOUDY    48  39  71 N8        30.21R
WHEATON        CLOUDY    48  37  66 CALM      30.20R
MORRIS         MOCLDY    52  39  62 NW5       30.18R
ALEXANDRIA     CLOUDY    50  31  48 CALM      30.18R
ELBOW LAKE     FAIR      47  41  78 CALM      30.18R
WADENA         CLOUDY    52  30  43 NE3       30.18R
GLENWOOD       CLOUDY    48  34  57 S5        30.19R
APPLETON       CLOUDY    50  37  62 CALM      30.17R
BENSON         CLOUDY    55  25  30 S3        30.19R
ORTONVILLE     CLOUDY    48  37  66 N5        30.18R
MADISON        CLOUDY    52  37  58 E6        30.17R
WILLMAR        FAIR      52  34  50 E3        30.19R
$$
MNZ033>034-036-042>043-049>051-058-059-290300-
   Central Minnesota

CITY           SKY/WX    TMP DP  RH WIND       PRES   REMARKS
ST CLOUD       PTCLDY    46  31  55 CALM      30.18R
SAUK CENTRE    FAIR      47  33  57 CALM      30.18R
PAYNESVILLE    CLOUDY    45  30  55 CALM      30.18R
AITKIN         PTCLDY    39  25  56 CALM      30.17R
PINE RIVER     CLOUDY    45  30  57 CALM      30.21R
BRAINERD       PTCLDY    44  30  57 CALM      30.18R
STAPLES        CLOUDY    52  27  37 CALM      30.18R
LONG PRAIRIE   FAIR      45  36  70 CALM      30.18R
LITTLE FALLS   CLOUDY    43  32  65 CALM      30.19R
LITCHFIELD     CLOUDY    52  34  50 CALM      30.18R
BUFFALO        PTCLDY    47  30  50 CALM      30.19R
MAPLE LAKE     CLOUDY    46  34  65 CALM      30.19R
HUTCHINSON     PTCLDY    49  36  61 NE3       30.18R
$$
MNZ037-044-045-052-053-290300-
   East Central Minnesota

CITY           SKY/WX    TMP DP  RH WIND       PRES   REMARKS
PRINCETON      PTCLDY    45  28  53 CALM      30.19R
MORA           CLEAR     41  32  70 CALM      30.20R
CAMBRIDGE      CLEAR     46  30  53 CALM      30.17R
RUSH CITY      MOCLDY    46  27  49 CALM      30.18R
MOOSE LAKE     CLEAR     46  28  49 NE3       30.18R
CLOQUET        CLEAR     39  28  65 E5        30.21R
MCGREGOR       CLEAR     43  32  65 N3        30.19R
$$
MNZ071>073-080-081-089-090-097-098-290300-
   Southwest Minnesota

CITY           SKY/WX    TMP DP  RH WIND       PRES   REMARKS
MONTEVIDEO     MOCLDY    48  36  61 E3        30.18R
GRANITE FALLS  MOCLDY    55  33  44 NE5       30.18R
CANBY          CLOUDY    51  40  66 CALM      30.17R
MARSHALL       PTCLDY    55  35  47 E6        30.17R
REDWOOD FALLS  CLOUDY    55  31  39 NE3       30.16R
OLIVIA         CLOUDY    50  32  50 NE5       30.17R
PIPESTONE      CLOUDY    48  34  57 SE3       30.15R
WINDOM         PTCLDY    46  37  71 E3        30.16R
WORTHINGTON    CLOUDY    48  39  71 E3        30.16R
JACKSON        MOCLDY    46  39  76 E5        30.16R
TRACY          CLOUDY    52  38  60 CALM      30.16R
SLAYTON        CLOUDY    47  37  67 E6        30.16R
$$
MNZ065>067-074>077-082>085-091>093-290300-
   South Central Minnesota

CITY           SKY/WX    TMP DP  RH WIND       PRES   REMARKS
MANKATO        CLOUDY    52  36  54 SE6       30.17R
NEW ULM        CLOUDY    52  34  50 SE5       30.16R
ST JAMES       CLOUDY    48  37  66 CALM      30.17S
FAIRMONT       CLOUDY    49  40  71 E7        30.16R
GLENCOE        PTCLDY    51  36  56 CALM      30.17R
FARIBAULT      PTCLDY    46  39  76 CALM      30.18R
OWATONNA       PTCLDY    50  37  62 CALM      30.18R
WASECA         CLOUDY    46  36  66 E6        30.19R
ALBERT LEA     PTCLDY    48  34  57 E5        30.17R
$$
MNZ078>079-086>088-094>096-290300-
   Southeast Minnesota

CITY           SKY/WX    TMP DP  RH WIND       PRES   REMARKS
ROCHESTER      CLOUDY    50  37  61 E6        30.18R
RED WING       PTCLDY    46  28  49 CALM      30.17R
STANTON        CLEAR     48  38  68 CALM      30.16R
DODGE CENTER   CLOUDY    46  37  71 E5        30.18R
WINONA         CLEAR     46  37  71 CALM      30.19R
AUSTIN         PTCLDY    48  37  66 CALM      30.18R
PRESTON        CLEAR     51  33  51 CALM      30.18R
$$
ABBREVIATIONS USED IN REMARKS
   TC - TEMPERATURES IN CELSIUS
  WCI - WIND CHILL INDEX
   HX - HEAT INDEX
  VSB - VISIBILITY
$$



USA.gov is the U.S. government's official web portal to all federal, state and local government web resources and services.